Wind_Speed
9 9 9 9 9 9 10 9 9 9 9 9 8 9 8 8 8 7 8 7 7 7 6 5 5 5 4 4 4 4 4 4 4 4 4 5 5 5 6 5 6 6 6
8 8 8 8 8 9 9 9 9 9 9 9 8 8 8 8 8 8 7 7 7 7 6 6 5 5 4 3 3 4 4 4 5 5 4 4 5 5 5 5 6 6 6
8 8 8 8 9 9 9 9 9 9 9 9 8 8 8 8 8 8 7 7 7 7 7 6 5 4 4 4 4 3 4 5 5 5 5 5 5 5 5 5 6 6 7
8 8 8 8 9 9 9 9 9 8 9 9 8 8 8 8 8 7 7 7 7 7 7 6 6 4 4 4 4 3 3 4 5 6 6 6 5 5 6 6 7 6 7
7 7 7 8 9 9 9 9 9 8 8 8 8 8 7 7 7 7 7 8 8 7 7 7 6 5 4 4 4 3 3 3 5 5 5 5 5 4 5 6 6 7 8
8 7 7 8 8 9 9 9 9 8 8 8 8 8 7 7 7 7 7 8 8 7 7 7 7 6 6 5 4 3 3 3 3 4 4 4 5 4 4 5 6 7 8
7 7 7 8 8 8 8 9 9 9 8 8 8 8 8 7 8 7 7 7 8 8 8 7 6 6 5 5 4 4 4 3 3 4 4 5 5 5 5 5 6 8 8
8 8 8 8 8 8 8 8 8 9 9 8 8 8 8 8 8 8 8 8 7 7 7 7 7 7 5 5 4 4 4 3 2 4 4 5 5 5 5 5 6 9 8
8 8 8 8 8 8 8 8 8 9 9 9 9 8 8 7 7 8 8 8 7 6 7 7 7 8 6 5 4 4 3 3 3 3 4 5 6 6 6 6 6 7 8
8 8 8 8 8 8 8 8 8 9 9 9 9 8 8 7 8 7 7 8 7 7 7 8 8 8 7 5 4 4 3 3 2 2 3 4 6 7 7 6 7 7 7
8 8 8 8 8 8 8 8 8 8 8 9 9 8 8 8 8 7 7 7 7 7 7 7 8 8 7 6 4 4 4 3 3 3 3 4 6 7 7 7 8 8 8
9 9 9 8 8 8 8 8 8 8 8 8 8 8 8 8 8 8 7 7 7 7 7 7 7 7 7 6 5 4 4 4 3 3 3 4 6 7 8 7 7 8 8
9 10 9 8 8 8 8 8 8 8 8 8 8 8 8 8 8 7 7 7 7 8 8 8 7 7 7 6 5 4 5 5 4 3 2 3 5 7 8 9 8 8 9
9 10 9 8 8 8 8 9 9 8 8 8 7 7 7 7 8 8 8 8 8 8 8 8 8 7 7 7 6 5 6 5 5 4 4 4 5 7 9 9 9 9 8
9 10 9 9 9 9 9 9 8 8 8 8 7 7 7 8 8 9 9 8 8 9 9 9 9 7 7 7 6 6 6 6 6 5 6 6 6 7 9 10 10 11 9
10 10 9 9 9 9 9 9 8 8 8 9 8 7 8 8 8 9 10 9 9 9 10 10 9 8 7 7 7 7 7 7 8 7 7 8 9 9 10 10 11 11 11
9 9 10 10 11 11 10 9 8 8 9 9 8 8 9 9 9 9 10 10 9 10 10 10 9 8 8 8 8 8 8 8 9 9 9 9 10 10 10 10 11 11 11
9 10 10 10 11 12 11 9 9 9 9 9 8 9 9 9 10 10 10 10 10 11 10 10 10 9 9 9 9 9 10 10 10 10 10 10 10 10 11 11 11 12 13
9 10 11 11 12 11 10 9 9 9 9 9 9 9 10 10 10 10 10 11 11 11 11 11 10 10 10 10 10 10 10 11 11 11 11 11 11 11 11 12 12 13 14
9 10 11 12 12 11 10 9 10 10 11 10 10 10 10 10 10 10 11 11 12 12 12 12 12 11 12 11 11 11 11 11 11 11 12 12 12 12 12 12 13 13 14
10 11 11 11 11 11 10 10 11 11 12 12 11 11 11 11 11 11 11 12 12 12 13 13 12 12 12 12 12 11 12 12 12 12 12 13 13 13 13 13 13 14 14
11 13 12 12 12 10 10 11 12 12 12 12 12 12 12 12 12 12 12 12 12 13 13 13 12 12 13 13 13 13 13 13 13 13 13 13 13 13 14 15 14 14 15
12 13 13 12 12 11 11 12 12 12 12 13 13 13 13 12 12 13 13 14 13 13 13 13 13 13 14 14 14 13 13 13 14 14 13 14 14 14 14 15 16 15 15
12 13 13 12 12 12 12 12 13 12 13 13 13 13 13 13 13 14 14 14 14 13 13 13 14 14 14 15 14 14 14 14 14 13 13 14 14 14 15 15 16 16 16
14 14 14 14 14 14 14 14 14 13 13 13 13 14 13 14 14 14 14 14 14 14 14 13 14 15 15 15 15 14 14 14 14 13 13 13 14 14 14 14 15 16 16
14 14 14 15 16 15 15 14 14 14 14 14 14 14 14 14 14 14 14 14 15 15 15 15 15 15 15 15 15 14 14 14 14 13 13 13 13 13 14 13 14 15 15
Wind_Direction
21 16 14 15 18 23 26 26 26 25 26 24 22 19 16 10 5 360 358 352 350 351 354 336 337 334 323 302 286 275 267 253 246 240 236 232 227 222 207 206 206 209 207
15 10 9 12 16 21 24 25 25 24 23 21 19 16 11 7 3 359 357 354 349 351 354 349 339 332 323 314 295 278 265 255 245 241 228 222 228 221 213 207 198 203 203
10 5 4 9 14 17 20 22 24 23 20 18 17 12 8 4 0 0 1 357 353 352 355 357 356 340 323 305 292 284 264 257 245 236 223 215 220 222 224 216 210 207 209
8 5 5 12 18 20 19 17 16 16 16 15 15 10 7 6 2 3 3 359 354 351 353 353 355 352 335 314 301 290 275 255 238 229 221 214 206 211 214 217 219 217 208
7 7 9 13 18 20 19 17 14 13 11 10 11 8 8 8 6 4 1 357 355 353 355 356 356 352 349 338 319 302 288 254 229 229 225 217 218 224 212 219 224 213 208
360 6 10 11 15 19 17 14 11 8 7 5 2 4 7 8 3 1 358 356 356 356 358 356 352 351 349 342 326 310 308 277 247 233 224 222 228 235 218 214 219 209 208
358 3 9 7 10 13 10 8 8 6 4 2 1 4 5 5 1 358 351 352 353 354 356 356 350 345 340 336 331 320 313 294 251 230 231 229 230 231 220 218 216 208 207
0 1 6 9 11 11 7 4 6 7 6 6 3 1 3 1 358 356 356 351 348 351 353 352 350 343 335 327 318 315 314 299 252 242 230 232 229 219 207 213 214 213 207
1 3 5 7 10 9 6 6 9 9 8 6 6 3 2 359 355 354 353 353 349 348 351 349 346 342 337 333 328 316 316 306 277 258 238 228 220 210 207 214 216 221 222
1 3 1 3 6 6 6 9 10 9 8 6 5 4 0 357 353 351 349 347 348 350 352 349 343 344 343 335 326 318 315 314 297 280 255 227 222 219 220 219 220 218 219
357 359 358 0 6 8 7 7 7 7 6 3 1 359 357 355 353 349 345 344 345 348 348 347 346 345 351 354 346 334 329 313 301 280 262 236 220 222 220 221 221 224 223
351 352 353 354 0 3 3 2 0 1 359 358 357 356 356 354 350 347 343 341 343 344 344 345 343 341 339 344 345 332 318 309 305 295 276 245 222 220 222 223 226 228 228
348 348 350 351 350 353 357 356 353 353 352 351 351 352 355 352 349 346 344 342 341 341 341 339 337 332 327 326 322 311 306 305 299 297 286 261 244 235 234 226 230 230 229
346 349 350 345 344 347 351 349 347 344 346 348 346 345 349 347 346 343 342 341 338 337 336 332 330 326 319 314 308 297 289 292 285 281 274 261 251 243 238 233 230 229 227
343 347 346 344 341 343 349 347 345 344 342 343 341 338 341 340 341 339 335 334 331 333 334 329 324 322 314 304 297 290 282 277 275 272 273 268 263 259 249 240 238 239 233
335 338 341 342 339 335 336 338 339 339 337 335 332 330 333 335 333 329 330 330 327 323 326 329 324 316 311 301 291 287 283 273 268 271 275 273 267 264 258 247 241 242 239
332 333 336 339 339 332 329 327 329 330 328 325 325 326 327 329 328 324 324 325 324 321 321 323 322 313 308 299 289 283 280 275 271 270 271 273 269 266 260 253 243 241 242
331 329 329 333 332 328 326 324 322 323 321 319 319 322 323 324 325 325 324 323 320 318 316 313 313 309 306 299 290 286 282 282 277 276 274 273 272 269 263 258 254 249 245
323 320 319 323 324 324 322 319 319 319 316 315 314 314 316 319 321 324 323 321 320 316 311 308 304 302 303 300 294 289 286 285 283 276 273 272 271 269 265 262 260 255 248
316 316 317 317 318 318 316 311 309 310 309 309 309 308 311 314 317 318 318 318 316 313 309 305 302 299 297 295 292 287 286 286 284 281 273 271 269 265 262 260 261 258 253
308 309 313 316 318 314 310 308 305 305 305 303 302 304 305 307 311 313 314 312 313 312 310 308 303 299 294 291 289 287 284 282 282 280 275 271 266 263 262 260 260 258 259
308 315 310 310 313 312 311 311 306 304 303 299 296 296 296 300 306 308 308 309 311 312 312 311 306 300 294 289 288 288 286 283 281 280 276 272 268 263 262 261 259 257 258
307 307 308 307 307 309 313 312 304 301 299 298 296 291 296 298 302 305 304 307 309 310 309 310 307 300 297 292 289 288 286 283 283 279 276 274 271 268 263 260 258 256 257
300 308 305 304 305 309 312 309 306 302 301 301 299 295 294 295 299 302 302 305 306 306 305 305 307 301 297 293 289 288 286 283 281 280 277 274 270 268 266 261 257 257 258
292 297 299 300 302 305 307 306 307 302 297 295 294 294 294 294 297 299 301 304 306 305 303 302 303 302 299 295 290 288 286 283 280 278 279 278 274 272 269 266 261 259 258
284 288 293 296 297 299 303 305 308 304 300 296 291 291 291 292 293 295 296 300 303 303 304 301 300 300 297 296 292 287 285 283 280 279 279 277 276 276 273 270 265 263 261
Height
5883 5882 5882 5881 5879 5878 5877 5876 5876 5875 5875 5874 5874 5873 5873 5872 5872 5871 5870 5869 5869 5868 5867 5867 5866 5866 5866 5866 5866 5866 5867 5867 5867 5867 5868 5869 5869 5870 5870 5871 5872 5873 5874
5883 5883 5882 5881 5880 5878 5877 5876 5876 5875 5875 5875 5874 5874 5873 5873 5872 5871 5870 5870 5869 5868 5867 5866 5866 5865 5865 5865 5865 5866 5866 5866 5866 5867 5867 5868 5868 5869 5870 5871 5871 5872 5873
5884 5883 5882 5881 5880 5879 5878 5877 5876 5876 5875 5875 5874 5874 5873 5872 5872 5871 5870 5870 5869 5868 5867 5866 5865 5865 5865 5865 5865 5865 5865 5865 5865 5866 5866 5867 5868 5868 5869 5870 5871 5872 5872
5884 5883 5883 5881 5880 5879 5878 5877 5877 5876 5876 5875 5874 5874 5873 5872 5871 5871 5870 5870 5869 5868 5867 5866 5865 5864 5864 5864 5864 5864 5864 5864 5864 5865 5865 5866 5867 5867 5868 5869 5870 5871 5872
5884 5884 5883 5882 5880 5879 5878 5877 5877 5876 5875 5875 5874 5874 5873 5872 5871 5871 5870 5869 5868 5867 5867 5866 5865 5865 5864 5863 5863 5863 5863 5863 5864 5864 5864 5865 5866 5866 5867 5868 5869 5870 5871
5885 5884 5883 5882 5881 5880 5879 5878 5877 5876 5875 5875 5874 5873 5873 5872 5871 5871 5870 5869 5868 5867 5866 5866 5865 5864 5864 5863 5862 5862 5862 5862 5863 5863 5864 5865 5865 5866 5867 5868 5868 5869 5870
5885 5884 5883 5882 5881 5880 5879 5878 5877 5876 5875 5874 5873 5873 5872 5872 5871 5870 5869 5869 5868 5866 5866 5865 5865 5864 5863 5863 5862 5862 5862 5861 5862 5862 5863 5863 5864 5865 5866 5867 5867 5868 5869
5885 5884 5883 5882 5881 5880 5879 5878 5877 5876 5875 5874 5873 5872 5872 5871 5871 5870 5869 5868 5867 5867 5866 5865 5864 5863 5863 5862 5862 5861 5861 5860 5860 5861 5861 5861 5863 5864 5865 5866 5867 5868 5868
5885 5884 5883 5882 5881 5880 5879 5878 5877 5876 5875 5874 5873 5872 5871 5871 5870 5869 5869 5868 5867 5867 5866 5865 5864 5863 5862 5862 5861 5861 5860 5860 5860 5859 5859 5860 5861 5863 5864 5866 5867 5868 5868
5885 5884 5883 5882 5881 5880 5879 5878 5877 5876 5875 5874 5873 5872 5871 5870 5869 5869 5868 5867 5866 5866 5865 5864 5863 5862 5861 5861 5860 5860 5860 5859 5858 5858 5857 5858 5860 5862 5863 5865 5866 5867 5867
5885 5884 5883 5882 5881 5880 5879 5878 5877 5876 5875 5874 5873 5872 5871 5870 5869 5868 5867 5866 5865 5865 5864 5863 5863 5862 5861 5860 5860 5860 5859 5859 5858 5857 5857 5857 5859 5861 5862 5864 5865 5866 5867
5885 5884 5883 5882 5881 5880 5879 5878 5877 5876 5874 5873 5872 5871 5870 5869 5868 5867 5866 5865 5865 5864 5863 5862 5862 5861 5860 5859 5859 5859 5859 5858 5858 5857 5857 5857 5858 5860 5861 5863 5864 5864 5865
5885 5884 5883 5882 5881 5880 5878 5877 5876 5875 5874 5872 5871 5870 5870 5869 5868 5867 5866 5865 5864 5863 5862 5862 5861 5860 5860 5859 5858 5858 5858 5857 5857 5857 5857 5857 5858 5859 5860 5861 5862 5863 5864
5884 5883 5882 5881 5880 5879 5878 5877 5876 5874 5873 5872 5871 5870 5869 5868 5867 5866 5865 5864 5863 5862 5862 5861 5860 5859 5859 5858 5857 5857 5857 5856 5856 5856 5856 5856 5857 5858 5858 5859 5860 5861 5863
5883 5882 5881 5880 5879 5878 5877 5876 5875 5873 5872 5871 5870 5869 5868 5867 5866 5865 5864 5863 5862 5861 5860 5859 5858 5858 5857 5857 5856 5856 5855 5855 5855 5855 5855 5856 5856 5856 5857 5858 5859 5860 5861
5883 5882 5881 5880 5879 5878 5876 5875 5874 5872 5871 5870 5869 5868 5867 5866 5865 5864 5863 5862 5861 5860 5859 5858 5857 5856 5856 5855 5855 5854 5854 5854 5854 5854 5854 5854 5854 5855 5855 5855 5856 5857 5858
5882 5881 5879 5878 5877 5876 5875 5873 5872 5871 5870 5869 5868 5867 5865 5864 5863 5862 5861 5861 5860 5858 5857 5856 5855 5854 5854 5853 5853 5853 5852 5852 5852 5852 5852 5852 5852 5852 5853 5853 5854 5855 5856
5880 5879 5878 5877 5876 5874 5873 5872 5871 5870 5869 5868 5867 5865 5864 5863 5862 5861 5860 5859 5858 5857 5855 5854 5853 5853 5852 5851 5851 5850 5850 5850 5849 5849 5849 5849 5849 5850 5850 5851 5851 5852 5853
5879 5878 5876 5875 5874 5872 5871 5870 5869 5868 5867 5866 5865 5864 5863 5861 5860 5859 5858 5857 5856 5855 5853 5852 5851 5851 5850 5849 5848 5848 5847 5847 5847 5847 5847 5847 5847 5847 5847 5848 5848 5849 5849
5877 5876 5874 5873 5871 5870 5869 5868 5867 5866 5865 5864 5863 5862 5860 5859 5858 5857 5856 5855 5854 5853 5851 5850 5849 5848 5847 5847 5846 5845 5845 5845 5844 5844 5844 5844 5843 5843 5843 5844 5844 5845 5846
5875 5873 5872 5871 5869 5868 5867 5866 5865 5863 5862 5861 5860 5859 5858 5857 5856 5855 5854 5853 5851 5850 5848 5847 5846 5845 5844 5844 5843 5843 5842 5842 5841 5841 5840 5840 5840 5840 5840 5839 5840 5841 5842
5872 5871 5870 5868 5867 5866 5865 5863 5862 5861 5859 5858 5857 5856 5856 5855 5854 5853 5851 5850 5849 5847 5845 5844 5843 5843 5842 5841 5840 5839 5839 5839 5838 5837 5837 5836 5836 5835 5835 5835 5836 5837 5838
5870 5869 5868 5866 5865 5863 5862 5861 5860 5858 5857 5855 5854 5854 5853 5852 5851 5850 5849 5847 5846 5844 5843 5841 5840 5839 5838 5837 5836 5836 5835 5834 5834 5834 5833 5832 5831 5831 5831 5831 5832 5833 5833
5867 5866 5865 5864 5862 5861 5859 5858 5857 5856 5854 5853 5852 5851 5850 5850 5849 5847 5846 5844 5842 5841 5839 5838 5837 5836 5835 5833 5832 5832 5831 5830 5830 5829 5829 5828 5828 5827 5827 5827 5828 5828 5829
5863 5863 5862 5861 5859 5858 5857 5855 5853 5853 5852 5850 5849 5848 5847 5847 5846 5844 5843 5841 5840 5838 5836 5835 5833 5832 5831 5830 5828 5827 5827 5826 5825 5825 5825 5824 5824 5823 5823 5823 5824 5824 5824
5859 5859 5858 5857 5856 5854 5853 5851 5850 5849 5848 5847 5846 5845 5844 5844 5843 5841 5839 5838 5836 5834 5833 5831 5830 5828 5827 5826 5825 5823 5823 5822 5821 5821 5821 5820 5820 5820 5819 5819 5820 5820 5820